Wind_Speed
9 9 9 9 9 9 9 9 9 10 10 11 10 11 10 11 11 11 12 12 11 10 10 10 9 8 8 9 9 9 8 8 8 8 8 8 9 10 10 10 10 10 10
9 9 9 8 10 10 8 8 9 9 10 10 10 10 11 11 11 12 13 12 11 10 10 9 9 10 10 10 10 9 9 8 8 8 8 8 9 10 10 10 10 10 10
9 8 7 8 8 9 8 8 9 9 9 9 9 10 11 11 12 12 12 12 11 11 11 9 10 10 11 10 11 9 9 9 9 9 9 9 10 10 10 10 11 12 12
10 9 8 8 8 8 8 8 8 9 9 9 9 10 11 12 12 12 13 12 12 12 11 11 11 11 11 11 10 10 10 10 10 10 10 10 11 10 10 10 11 12 12
11 10 9 9 10 9 8 8 8 9 9 9 10 11 11 12 12 13 13 13 13 13 12 12 12 12 12 12 12 11 12 11 11 11 11 11 10 10 10 11 12 12 13
10 10 11 11 11 10 9 9 9 9 10 10 11 12 13 13 14 14 14 14 14 14 14 14 14 14 14 13 14 14 14 13 12 12 12 12 12 12 12 13 14 14 15
12 13 12 12 12 12 12 12 11 10 11 12 12 13 13 14 15 15 16 15 15 15 15 16 16 16 15 15 16 16 15 15 14 13 13 13 14 14 15 15 15 15 16
13 14 14 13 13 13 12 13 13 13 13 14 14 15 15 16 16 17 17 17 17 17 17 18 18 17 17 17 17 16 16 16 16 15 15 16 16 16 16 17 17 17 17
14 14 14 14 13 12 13 13 14 14 14 15 16 16 17 17 18 18 19 19 19 19 19 19 18 18 17 18 17 17 17 18 18 18 18 18 18 18 18 19 19 19 19
17 16 14 13 13 13 13 14 15 15 15 17 18 18 19 20 20 20 20 20 20 20 20 20 19 19 19 19 18 18 19 19 19 19 19 19 20 20 20 21 21 21 22
15 17 16 13 12 13 14 15 16 17 18 19 20 21 22 22 22 22 22 21 21 22 21 21 21 20 20 19 20 20 20 21 21 21 21 21 22 22 22 22 22 23 23
16 16 16 14 13 14 15 16 18 19 20 21 22 22 23 24 24 24 24 23 22 23 22 22 22 21 20 20 20 20 21 22 23 23 23 23 23 24 24 24 24 24 24
16 16 17 15 15 16 16 17 19 21 22 23 23 24 25 25 26 25 25 24 24 24 23 22 22 21 21 21 22 22 23 24 24 25 24 24 25 25 26 26 26 26 25
17 18 18 17 17 18 19 19 20 22 24 25 25 25 25 26 25 26 25 25 25 24 24 23 23 23 23 23 23 23 25 25 25 26 26 26 26 26 26 26 26 26 26
19 19 18 19 20 20 21 21 22 24 25 26 26 26 26 26 26 26 25 24 24 24 24 25 25 25 25 25 25 25 26 27 27 27 28 27 27 26 27 27 26 27 27
21 21 20 21 21 22 22 23 24 25 26 27 27 27 27 26 26 26 25 25 25 24 25 25 26 26 26 26 26 27 27 28 27 27 28 28 28 27 27 26 27 27 27
22 21 21 21 22 23 24 25 26 27 27 27 27 27 27 27 26 26 25 25 25 25 25 25 25 26 27 27 28 28 28 29 29 29 29 28 28 28 28 28 28 27 27
24 23 23 23 24 24 25 27 27 27 27 27 27 28 28 28 28 27 27 26 26 26 26 26 26 27 28 29 29 30 29 30 30 30 30 29 29 29 29 29 28 28 28
26 25 25 26 27 27 28 29 29 28 28 28 29 30 30 29 29 29 28 28 27 27 28 29 29 28 29 29 30 30 31 31 31 32 31 31 30 29 29 29 29 29 30
28 28 28 29 28 28 29 29 29 29 29 29 30 31 31 30 30 30 30 29 29 29 29 30 29 29 30 31 31 31 32 32 32 33 32 32 31 30 29 29 29 30 30
30 30 30 30 30 30 31 30 30 30 30 31 31 32 31 31 30 30 30 30 30 30 30 30 30 30 31 32 32 32 33 33 33 33 33 32 30 30 30 30 30 30 31
32 31 31 30 31 31 32 32 31 32 32 32 32 31 31 31 31 30 30 30 31 30 30 30 31 31 32 33 33 33 33 32 32 32 31 30 30 30 30 29 30 30 30
31 31 31 32 32 32 33 33 33 33 32 32 32 32 31 30 30 30 30 30 30 30 30 31 31 31 31 31 31 31 30 30 30 30 30 29 29 29 28 28 28 28 28
31 32 32 33 33 34 34 34 34 33 32 32 32 32 31 30 30 30 30 30 30 30 31 31 30 29 29 30 30 30 30 30 29 29 29 28 28 28 27 26 27 26 26
34 34 34 34 34 34 35 35 34 34 33 32 31 30 30 30 30 30 30 30 30 30 30 30 30 29 29 30 31 30 30 29 29 29 27 27 27 27 26 25 25 25 25
35 36 36 35 35 35 34 34 34 33 32 31 30 30 30 30 30 31 30 30 30 30 30 30 31 30 30 30 31 30 30 29 28 28 27 26 26 25 25 25 25 25 25
Wind_Direction
350 351 351 352 355 356 358 1 358 0 3 3 5 4 3 3 4 3 1 0 356 355 351 351 351 350 345 339 335 332 321 315 310 305 295 288 282 274 272 267 264 262 262
338 342 343 343 348 346 349 351 350 349 353 355 356 358 356 356 357 357 355 353 351 354 353 348 350 346 342 339 333 330 325 320 314 307 302 293 287 278 272 266 263 262 266
329 327 332 337 340 344 341 341 346 346 347 347 347 349 349 348 347 348 350 346 344 347 351 346 341 339 337 332 330 326 321 318 309 302 299 285 278 279 276 270 267 269 271
324 322 322 330 335 330 325 327 334 339 341 341 339 339 338 340 342 342 343 340 339 337 338 340 337 334 332 330 328 321 319 315 311 305 301 293 280 274 275 283 279 277 275
320 319 316 320 322 323 319 318 319 324 327 328 328 330 329 328 329 330 333 333 332 329 327 327 327 325 324 326 321 316 314 312 310 302 297 294 288 280 280 282 280 278 278
309 310 309 311 313 309 308 309 308 314 315 317 320 322 322 323 323 323 325 325 326 324 321 319 319 317 316 317 316 313 310 306 304 301 296 292 287 284 280 279 278 277 278
301 304 302 305 309 304 304 299 299 302 306 311 316 317 318 321 321 321 321 321 320 318 315 313 312 311 310 311 311 310 307 303 300 298 295 293 289 286 283 282 279 276 278
298 300 300 301 304 301 298 299 295 296 299 306 310 313 316 318 318 318 317 317 316 314 312 311 310 308 307 307 307 306 306 303 301 297 295 293 290 286 283 283 281 279 278
292 299 297 297 297 294 296 297 298 298 302 303 305 307 309 311 313 313 314 313 313 310 308 308 307 307 306 305 303 301 300 299 298 297 294 292 289 285 283 282 280 280 279
298 299 297 291 287 286 290 294 297 299 300 302 302 306 308 310 310 309 309 310 309 307 305 305 306 305 303 301 301 299 298 295 294 293 293 291 288 286 284 283 280 279 278
303 300 298 292 287 284 286 291 296 298 300 303 306 307 308 308 307 307 307 308 307 304 302 302 303 302 300 299 297 294 293 294 292 290 290 290 289 285 282 281 280 278 278
297 296 297 294 290 288 290 296 299 297 299 302 304 304 305 307 307 306 305 305 304 304 300 300 300 300 298 297 295 295 293 293 293 290 288 288 287 287 284 281 279 277 276
293 294 296 294 289 291 294 299 300 299 298 299 300 301 303 304 305 306 304 302 301 302 302 301 299 300 299 298 297 297 296 293 292 290 286 285 285 286 287 283 280 278 276
296 294 296 295 292 291 295 298 299 299 299 298 298 300 302 303 305 306 302 299 299 299 300 301 301 298 297 297 297 297 296 294 291 289 287 286 286 286 286 284 281 279 278
293 292 293 293 293 293 294 295 296 297 297 298 297 299 300 301 302 303 301 298 297 297 298 298 300 299 298 298 297 296 295 295 293 291 289 289 287 286 285 283 282 280 278
293 294 296 295 295 295 295 295 296 297 297 297 297 297 298 299 299 299 299 298 299 297 297 298 298 298 297 297 297 296 296 295 294 294 292 290 288 286 284 283 282 281 280
292 294 294 295 294 294 294 294 295 295 296 296 297 297 298 298 297 297 298 299 301 301 299 298 299 298 297 297 296 296 296 296 295 294 293 290 289 286 284 282 281 281 281
287 290 292 293 292 293 293 293 294 295 296 297 296 296 296 297 296 295 296 297 299 299 298 298 299 298 298 297 296 296 295 295 296 295 293 291 289 287 285 284 283 282 280
285 286 288 291 292 292 292 293 293 294 295 296 296 296 297 297 295 295 294 296 298 298 299 300 299 298 297 297 296 296 296 296 295 294 293 291 289 285 284 282 282 282 281
283 285 287 290 292 292 293 294 294 294 294 295 295 296 296 296 296 295 295 296 296 297 298 298 298 298 297 297 297 297 296 296 295 293 291 290 288 285 284 283 283 283 283
282 285 287 287 288 291 292 292 292 292 292 292 292 293 294 295 295 294 293 293 294 296 297 298 297 297 297 297 296 295 295 294 294 293 291 290 288 284 284 284 284 284 283
282 284 286 286 288 290 291 291 290 290 290 290 290 291 292 294 294 293 293 293 294 295 297 297 298 298 298 297 297 297 296 295 294 294 293 290 289 287 285 285 284 284 283
281 283 284 286 287 288 289 289 289 289 290 290 290 291 290 291 292 291 291 292 293 294 296 297 298 300 300 300 299 299 298 297 295 294 292 291 290 288 286 285 286 285 284
281 283 283 283 285 286 287 287 288 288 289 289 289 289 289 288 289 289 289 290 291 293 295 297 299 300 301 301 300 298 298 297 296 295 293 292 292 290 287 284 283 283 283
281 282 283 283 284 285 285 286 286 286 288 288 288 288 288 289 289 289 290 291 291 293 295 297 299 301 302 302 300 298 297 296 295 294 293 292 291 290 288 286 283 282 284
281 282 284 284 283 283 285 284 284 284 285 286 286 286 287 288 289 289 290 292 293 294 295 297 298 299 301 303 302 299 296 295 294 293 293 292 291 290 289 286 285 284 285
Height
5919 5917 5916 5915 5914 5913 5912 5911 5909 5908 5907 5905 5904 5903 5901 5899 5897 5896 5894 5892 5890 5889 5887 5886 5885 5883 5882 5880 5879 5878 5877 5876 5874 5874 5873 5872 5871 5870 5870 5870 5870 5870 5870
5918 5917 5916 5914 5912 5911 5911 5910 5909 5907 5906 5905 5903 5902 5900 5898 5897 5895 5893 5891 5890 5888 5886 5885 5884 5882 5880 5879 5878 5876 5875 5874 5873 5872 5871 5870 5869 5868 5868 5867 5867 5867 5867
5917 5916 5914 5913 5912 5910 5910 5909 5908 5906 5905 5903 5902 5901 5899 5898 5896 5894 5892 5890 5888 5887 5885 5884 5883 5881 5879 5878 5876 5874 5873 5872 5871 5870 5869 5868 5867 5866 5866 5865 5864 5864 5864
5915 5914 5912 5911 5911 5910 5909 5908 5907 5905 5904 5902 5901 5899 5898 5896 5895 5893 5891 5889 5887 5886 5884 5882 5881 5879 5878 5876 5874 5872 5871 5869 5868 5867 5866 5865 5864 5864 5863 5863 5862 5861 5861
5913 5911 5910 5910 5909 5908 5907 5906 5905 5903 5902 5901 5899 5898 5896 5895 5893 5891 5889 5887 5885 5884 5882 5880 5879 5877 5875 5873 5872 5870 5868 5867 5865 5864 5863 5862 5861 5860 5860 5860 5859 5858 5858
5910 5909 5909 5908 5908 5906 5905 5904 5902 5901 5899 5898 5897 5895 5894 5892 5891 5889 5887 5885 5883 5881 5879 5878 5876 5874 5872 5870 5869 5867 5865 5864 5862 5860 5859 5858 5857 5856 5856 5856 5855 5854 5853
5906 5906 5906 5906 5905 5903 5902 5901 5900 5898 5897 5895 5894 5893 5891 5889 5888 5886 5884 5882 5880 5878 5876 5874 5873 5871 5869 5867 5865 5863 5861 5860 5858 5857 5855 5854 5853 5852 5851 5851 5850 5849 5848
5903 5903 5903 5902 5901 5900 5899 5898 5897 5895 5893 5892 5891 5889 5888 5886 5885 5883 5880 5878 5877 5874 5872 5870 5868 5866 5864 5863 5861 5859 5857 5855 5854 5852 5851 5850 5848 5847 5846 5846 5845 5844 5843
5900 5900 5899 5898 5897 5897 5895 5894 5893 5891 5889 5889 5887 5885 5884 5882 5881 5879 5876 5874 5872 5870 5868 5866 5863 5861 5860 5858 5856 5854 5852 5850 5849 5847 5846 5844 5842 5841 5840 5839 5838 5838 5837
5896 5895 5895 5894 5893 5892 5891 5890 5889 5887 5886 5885 5883 5880 5879 5878 5876 5874 5872 5869 5867 5865 5863 5860 5858 5856 5854 5852 5850 5848 5846 5844 5843 5841 5840 5838 5836 5835 5833 5832 5831 5830 5830
5891 5891 5890 5889 5887 5887 5886 5885 5884 5883 5882 5880 5878 5876 5875 5872 5871 5869 5866 5864 5862 5859 5857 5855 5852 5850 5848 5846 5844 5843 5841 5838 5836 5835 5833 5831 5830 5828 5827 5825 5824 5823 5822
5888 5887 5886 5884 5883 5883 5882 5881 5880 5878 5877 5875 5873 5871 5869 5867 5865 5863 5860 5858 5856 5853 5851 5849 5847 5844 5842 5840 5838 5836 5834 5832 5829 5827 5825 5824 5823 5821 5819 5817 5816 5815 5814
5883 5882 5881 5880 5879 5878 5877 5876 5875 5873 5871 5870 5868 5866 5863 5861 5859 5857 5854 5852 5849 5847 5845 5843 5841 5838 5836 5834 5832 5830 5827 5824 5822 5820 5818 5817 5815 5813 5811 5810 5808 5807 5806
5878 5877 5876 5875 5874 5873 5872 5871 5869 5868 5866 5864 5862 5859 5857 5855 5852 5850 5847 5844 5843 5841 5839 5836 5834 5832 5829 5827 5825 5823 5820 5817 5814 5812 5810 5808 5806 5804 5803 5801 5800 5799 5798
5873 5872 5870 5870 5869 5868 5867 5865 5864 5862 5860 5858 5856 5853 5851 5849 5846 5844 5841 5839 5836 5834 5832 5830 5828 5825 5823 5820 5818 5815 5813 5810 5807 5804 5802 5800 5798 5796 5794 5792 5791 5790 5789
5867 5866 5865 5865 5864 5862 5861 5860 5858 5856 5854 5852 5849 5847 5844 5842 5839 5837 5835 5832 5830 5827 5825 5823 5820 5818 5815 5813 5810 5808 5805 5802 5799 5797 5794 5792 5789 5787 5785 5784 5783 5781 5780
5862 5861 5859 5858 5857 5856 5855 5853 5852 5850 5848 5845 5843 5840 5837 5835 5833 5830 5828 5825 5822 5820 5818 5816 5813 5810 5808 5805 5802 5799 5797 5794 5791 5788 5786 5783 5781 5779 5777 5775 5774 5772 5771
5856 5855 5853 5852 5850 5849 5848 5846 5844 5842 5840 5838 5835 5833 5830 5828 5825 5822 5820 5817 5815 5813 5811 5808 5805 5803 5800 5797 5794 5791 5788 5785 5782 5780 5777 5774 5772 5769 5767 5766 5764 5763 5762
5849 5848 5847 5845 5844 5842 5841 5839 5837 5835 5833 5830 5828 5825 5823 5820 5818 5815 5812 5810 5808 5805 5803 5800 5797 5794 5792 5788 5785 5782 5779 5776 5773 5770 5767 5764 5762 5760 5758 5757 5755 5754 5753
5843 5842 5840 5839 5837 5835 5833 5831 5829 5827 5825 5823 5820 5818 5815 5813 5810 5807 5805 5802 5800 5797 5795 5792 5789 5786 5783 5780 5776 5773 5770 5767 5764 5761 5758 5755 5752 5750 5748 5747 5746 5744 5743
5835 5834 5833 5831 5829 5828 5826 5823 5821 5819 5817 5815 5812 5810 5807 5804 5802 5799 5797 5794 5792 5789 5786 5783 5780 5777 5774 5771 5767 5763 5760 5757 5754 5751 5748 5745 5742 5740 5738 5737 5736 5734 5733
5827 5826 5824 5823 5821 5819 5817 5815 5813 5810 5808 5806 5803 5801 5799 5796 5793 5791 5788 5785 5783 5780 5777 5774 5771 5768 5765 5761 5757 5753 5750 5746 5744 5741 5738 5735 5733 5731 5729 5727 5726 5724 5722
5819 5817 5816 5814 5813 5811 5808 5806 5804 5801 5799 5796 5794 5792 5790 5787 5785 5782 5779 5776 5774 5771 5768 5765 5762 5759 5755 5751 5748 5744 5740 5737 5734 5732 5729 5726 5724 5721 5720 5718 5716 5715 5713
5810 5808 5807 5805 5803 5801 5799 5797 5795 5792 5790 5788 5785 5782 5780 5777 5775 5772 5770 5767 5765 5762 5759 5756 5753 5750 5747 5743 5740 5736 5732 5729 5726 5723 5720 5718 5715 5713 5711 5709 5707 5705 5704
5800 5799 5797 5795 5793 5791 5789 5787 5785 5783 5780 5778 5776 5773 5771 5768 5765 5763 5761 5759 5756 5754 5751 5748 5745 5742 5739 5735 5731 5727 5724 5720 5718 5714 5712 5709 5707 5704 5702 5700 5699 5697 5696
5790 5789 5787 5784 5782 5780 5778 5776 5775 5772 5770 5768 5766 5764 5762 5759 5757 5754 5752 5749 5747 5745 5742 5739 5736 5733 5730 5726 5723 5719 5715 5712 5709 5706 5704 5701 5699 5697 5695 5693 5691 5690 5688